Powrót do katalogu

HJ-1A

AktywnyNaukaSSO
NORAD 33320·PAYLOAD·🇨🇳 China

Wystrzelony Sep 6, 2008 z Taiyuan Satellite Launch Center

Loading…

Następne Przeloty (najbliższe 24 godziny)

TLE

ŚwieżeSource: Space-Track

Epoka: Sep 14, 2026, 15:17 UTC

1 33320U 08041A   26257.63692100  .00000320  00000-0  44423-4 0  9999
2 33320  97.6779 240.0704 0018085 200.8350 159.2130 14.84157684971674

Śledź HJ-1A w czasie rzeczywistym z AllMySat

Download on the App Store